Location: Unspecified
(48.8656°N, 0.0000°E)
Time: 05:07:39
(UTC+00:00)

Vanguard 1 Rocket - Pass Details

Date: 22 June 2019
Orbit: 652 x 4224 km, 34.3° (Epoch: 21 August)

Event Time Altitude Azimuth Distance (km) Brightness Sun altitude
Rises 15:00:32 0° 205° (SSW) 8,197 12.7 46.8°
Reaches altitude 10° 15:08:40 10° 194° (SSW) 6,724 12.3 45.5°
Maximum altitude 15:21:51 22° 154° (SSE) 4,664 11.1 43.5°
Drops below altitude 10° 15:30:58 10° 110° (ESE) 4,541 10.7 42.0°
Sets 15:34:54 0° 95° (E) 5,035 10.8 41.4°
